Home   Weather   Maribor   Past weeks

Flag for Slovenia Past Weather in Maribor, Slovenia — Yesterday and Last 2 Weeks

Now
26 °F

Passing clouds.


Feels Like: 26 °F
Forecast: 8 / 28 °F
Wind: 2 mph from Northeast

Location: Maribor / Slivnica

Current Time: Jan 19, 2017 at 8:00:58 am

Latest Report: Jan 19, 2017 at 7:00 am


Visibility: 13 mi

Pressure: 30.64 "Hg

Humidity: 67%

Dew Point: 16 °F

Location of MariborLocation

Past Weather in Maribor — Graph

°F

Maribor Temperature Yesterday

Maximum temperature yesterday: 30 °F (at 4:00 pm)
Minimum temperature yesterday: 27 °F (at 8:00 am)
Average temperature yesterday: 28 °F

High & Low Weather Summary for the Past Weeks

 TemperatureHumidityPressure
High41 °F (Jan 13, 4:00 am)99% (Jan 15, 9:00 am)30.62 "Hg (Jan 15, 9:00 am)
Low-1 °F (Jan 11, 4:00 am)34% (Jan 6, 2:00 pm)29.47 "Hg (Jan 13, 11:00 am)
Average24 °F74%30.17 "Hg
* Reported Jan 4 6:00 am — Jan 19 6:00 am, Maribor, Weather by CustomWeather, © 2017

Note: Actual official high and low records may vary slightly from our data, if they occured in-between our weather recording intervals... More about our weather records

Advertising

Maribor Weather History for the Previous 24 Hours

Scroll right to see more
 ConditionsComfort  
Time TempWeatherWind HumidityBarometerVisibility
6:00 am
Thu, Jan 19
28 °FOvercast.5 mph64%30.61 "Hg11 mi
5:00 am28 °FChilly.3 mph68%30.62 "Hg8 mi
4:00 am27 °FChilly.3 mph69%30.62 "Hg8 mi
3:00 am28 °FChilly.3 mph67%30.62 "Hg8 mi
2:00 am28 °FChilly.3 mph65%30.61 "Hg8 mi
1:00 am28 °FChilly.3 mph64%30.61 "Hg7 mi
12:00 am28 °FChilly.5 mph66%30.61 "Hg7 mi
11:00 pm
Wed, Jan 18
29 °FChilly.5 mph66%30.61 "Hg7 mi
10:00 pm29 °FOvercast.3 mph70%30.61 "Hg6 mi
9:00 pm28 °FOvercast.5 mph71%30.60 "Hg6 mi
8:00 pm28 °FPassing clouds.5 mph70%30.59 "Hg6 mi
7:00 pm29 °FOvercast.6 mph68%30.59 "Hg6 mi
6:00 pm29 °FOvercast.3 mph66%30.58 "Hg6 mi
5:00 pm29 °FOvercast.3 mph64%30.57 "Hg6 mi
4:00 pm30 °FOvercast.3 mph64%30.55 "Hg9 mi
3:00 pm29 °FOvercast.5 mph62%30.54 "Hg9 mi
2:00 pm29 °FOvercast.6 mph62%30.54 "Hg9 mi
1:00 pm29 °FOvercast.6 mph62%30.55 "Hg9 mi
12:00 pm29 °FOvercast.6 mph63%30.56 "Hg9 mi
11:00 am28 °FChilly.5 mph63%30.57 "Hg10 mi
10:00 am28 °FOvercast.5 mph67%30.56 "Hg9 mi
9:00 am28 °FOvercast.5 mph68%30.56 "Hg9 mi
8:00 am27 °FOvercast.5 mph66%30.53 "Hg9 mi
Weather by CustomWeather, © 2017

See weather overviewHow to use our weather pages